| time (UTC) | temp F | wind direction | speed MPH | gust MPH | rain 1hr in | rain 24hr in | rain mn in | humidity % | barometer mb |
| 20260504150635 | 70 | 130 | 1.0 | 6.0 | 0.00 | 0.00 | 0.00 | 52 | 1011.0 |
| 20260504140425 | 63 | 191 | 0.0 | 5.0 | 0.00 | 0.00 | 0.00 | 71 | 1011.6 |
| 20260504100550 | 46 | 5 | 0.0 | 1.0 | 0.00 | 0.00 | 0.00 | 86 | 1011.6 |
| 20260504081152 | 49 | 36 | 0.0 | 3.0 | 0.00 | 0.00 | 0.00 | 74 | 1011.7 |
| 20260504080122 | 49 | 89 | 0.0 | 3.0 | 0.00 | 0.00 | 0.00 | 74 | 1011.7 |
| 20260504045028 | 49 | 308 | 0.0 | 0.0 | 0.00 | 0.00 | 0.00 | 70 | 1012.3 |
| 20260504042910 | 49 | 316 | 0.0 | 0.0 | 0.00 | 0.00 | 0.00 | 72 | 1012.3 |
| 20260504041841 | 49 | 316 | 0.0 | 0.0 | 0.00 | 0.00 | 0.00 | 74 | 1012.3 |
| 20260504040836 | 49 | 316 | 0.0 | 0.0 | 0.00 | 0.00 | 0.00 | 73 | 1012.3 |
| 20260504035814 | 49 | 316 | 0.0 | 0.0 | 0.00 | 0.00 | 0.00 | 71 | 1012.3 |
| 20260504034747 | 49 | 316 | 0.0 | 0.0 | 0.00 | 0.00 | 0.00 | 68 | 1012.3 |
| 20260504032604 | 50 | 316 | 0.0 | 0.0 | 0.00 | 0.00 | 0.00 | 68 | 1012.3 |
| 20260504031623 | 50 | 316 | 0.0 | 0.0 | 0.00 | 0.00 | 0.00 | 68 | 1012.3 |
| 20260504030556 | 50 | 316 | 0.0 | 0.0 | 0.00 | 0.00 | 0.00 | 67 | 1012.3 |
| 20260504025617 | 50 | 316 | 0.0 | 0.0 | 0.00 | 0.00 | 0.00 | 68 | 1012.1 |
| 20260504024633 | 49 | 311 | 0.0 | 0.0 | 0.00 | 0.00 | 0.00 | 69 | 1012.1 |
| 20260504023649 | 49 | 311 | 0.0 | 0.0 | 0.00 | 0.00 | 0.00 | 71 | 1012.2 |
| 20260504022622 | 49 | 311 | 0.0 | 0.0 | 0.00 | 0.00 | 0.00 | 69 | 1012.3 |
| 20260504021615 | 49 | 309 | 0.0 | 0.0 | 0.00 | 0.00 | 0.00 | 70 | 1012.3 |
| 20260504020627 | 49 | 309 | 0.0 | 0.0 | 0.00 | 0.00 | 0.00 | 69 | 1012.4 |
| 20260504015631 | 49 | 309 | 0.0 | 0.0 | 0.00 | 0.00 | 0.00 | 69 | 1012.4 |
| 20260504014601 | 49 | 309 | 0.0 | 0.0 | 0.00 | 0.00 | 0.00 | 68 | 1012.4 |
| 20260504013556 | 49 | 309 | 0.0 | 0.0 | 0.00 | 0.00 | 0.00 | 68 | 1012.2 |
| 20260504012532 | 50 | 309 | 0.0 | 1.0 | 0.00 | 0.00 | 0.00 | 68 | 1011.9 |
| 20260504011522 | 50 | 284 | 0.0 | 0.0 | 0.00 | 0.00 | 0.00 | 66 | 1011.9 |
| 20260504010538 | 51 | 243 | 0.0 | 0.0 | 0.00 | 0.00 | 0.00 | 65 | 1011.9 |
| 20260504004428 | 53 | 243 | 0.0 | 0.0 | 0.00 | 0.00 | 0.00 | 61 | 1011.8 |
| 20260504002348 | 55 | 243 | 0.0 | 0.0 | 0.00 | 0.00 | 0.00 | 57 | 1011.4 |
| 20260504001339 | 56 | 243 | 0.0 | 0.0 | 0.00 | 0.00 | 0.00 | 54 | 1011.3 |
| 20260504000335 | 57 | 243 | 0.0 | 0.0 | 0.00 | 0.00 | 0.00 | 52 | 1011.3 |
| 20260503235312 | 59 | 243 | 0.0 | 0.0 | 0.00 | 0.00 | 0.00 | 50 | 1011.3 |
| 20260503234313 | 60 | 243 | 0.0 | 0.0 | 0.00 | 0.00 | 0.00 | 48 | 1011.3 |
| 20260503233241 | 61 | 243 | 0.0 | 0.0 | 0.00 | 0.00 | 0.00 | 45 | 1011.3 |
| 20260503231150 | 63 | 98 | 0.0 | 1.0 | 0.00 | 0.00 | 0.00 | 39 | 1011.2 |
| 20260503230152 | 64 | 317 | 0.0 | 0.0 | 0.00 | 0.00 | 0.00 | 38 | 1011.2 |
| 20260503225202 | 65 | 132 | 1.0 | 9.0 | 0.00 | 0.00 | 0.00 | 36 | 1011.3 |
| 20260503224152 | 66 | 86 | 0.0 | 2.0 | 0.00 | 0.00 | 0.00 | 37 | 1011.3 |
| 20260503223142 | 66 | 1 | 1.0 | 8.0 | 0.00 | 0.00 | 0.00 | 35 | 1011.3 |
| 20260503222117 | 66 | 174 | 0.0 | 6.0 | 0.00 | 0.00 | 0.00 | 36 | 1011.2 |
| 20260503221140 | 66 | 56 | 1.0 | 6.0 | 0.00 | 0.00 | 0.00 | 35 | 1011.2 |
| 20260503220105 | 66 | 316 | 1.0 | 4.0 | 0.00 | 0.00 | 0.00 | 36 | 1011.2 |
| 20260503215107 | 66 | 148 | 1.0 | 10.0 | 0.00 | 0.00 | 0.00 | 36 | 1011.3 |
| 20260503214128 | 66 | 51 | 1.0 | 10.0 | 0.00 | 0.00 | 0.00 | 36 | 1011.4 |
| 20260503213120 | 66 | 338 | 1.0 | 9.0 | 0.00 | 0.00 | 0.00 | 34 | 1011.4 |
| 20260503212126 | 66 | 264 | 1.0 | 9.0 | 0.00 | 0.00 | 0.00 | 35 | 1011.4 |
| 20260503211110 | 66 | 245 | 1.0 | 5.0 | 0.00 | 0.00 | 0.00 | 38 | 1011.4 |
| 20260503210048 | 66 | 325 | 1.0 | 5.0 | 0.00 | 0.00 | 0.00 | 37 | 1011.4 |
| 20260503205044 | 66 | 304 | 1.0 | 6.0 | 0.00 | 0.00 | 0.00 | 36 | 1011.5 |
| 20260503204026 | 66 | 186 | 2.0 | 6.0 | 0.00 | 0.00 | 0.00 | 34 | 1011.6 |
| 20260503203018 | 66 | 79 | 2.0 | 6.0 | 0.00 | 0.00 | 0.00 | 36 | 1011.6 |
| 20260503202026 | 66 | 198 | 1.0 | 6.0 | 0.00 | 0.00 | 0.00 | 36 | 1011.5 |
| 20260503201001 | 66 | 290 | 1.0 | 6.0 | 0.00 | 0.00 | 0.00 | 37 | 1011.8 |
| 20260503195955 | 66 | 71 | 1.0 | 4.0 | 0.00 | 0.00 | 0.00 | 36 | 1011.8 |
| 20260503195013 | 65 | 311 | 1.0 | 6.0 | 0.00 | 0.00 | 0.00 | 39 | 1011.9 |
| 20260503193954 | 66 | 31 | 0.0 | 6.0 | 0.00 | 0.00 | 0.00 | 35 | 1012.0 |
| 20260503193012 | 65 | 320 | 1.0 | 8.0 | 0.00 | 0.00 | 0.00 | 37 | 1012.0 |
| 20260503192012 | 64 | 26 | 2.0 | 8.0 | 0.00 | 0.00 | 0.00 | 36 | 1012.4 |
| 20260503190948 | 65 | 115 | 1.0 | 5.0 | 0.00 | 0.00 | 0.00 | 36 | 1012.4 |
| 20260503185939 | 65 | 168 | 1.0 | 5.0 | 0.00 | 0.00 | 0.00 | 37 | 1012.4 |
| 20260503184918 | 65 | 164 | 0.0 | 4.0 | 0.00 | 0.00 | 0.00 | 36 | 1012.6 |
| 20260503183916 | 64 | 349 | 0.0 | 9.0 | 0.00 | 0.00 | 0.00 | 41 | 1012.8 |
| 20260503181730 | 64 | 181 | 1.0 | 5.0 | 0.00 | 0.00 | 0.00 | 35 | 1012.9 |
| 20260503180718 | 64 | 75 | 1.0 | 5.0 | 0.00 | 0.00 | 0.00 | 43 | 1013.0 |
| 20260503175700 | 63 | 107 | 1.0 | 6.0 | 0.00 | 0.00 | 0.00 | 45 | 1013.1 |
| 20260503174706 | 62 | 185 | 1.0 | 6.0 | 0.00 | 0.00 | 0.00 | 42 | 1013.1 |
| 20260503173654 | 62 | 23 | 1.0 | 6.0 | 0.00 | 0.00 | 0.00 | 42 | 1013.3 |
| 20260503172719 | 62 | 0 | 1.0 | 9.0 | 0.00 | 0.00 | 0.00 | 40 | 1013.6 |
| 20260503171717 | 61 | 153 | 1.0 | 11.0 | 0.00 | 0.00 | 0.00 | 42 | 1013.6 |
| 20260503170735 | 61 | 51 | 1.0 | 11.0 | 0.00 | 0.00 | 0.00 | 39 | 1013.5 |